Location: Long Sault Conservation Area
(44.0496°N, 78.7419°W)
Time: 06:43:38
(UTC-04:00)

Daily predictions for brighter satellites

Satellite Brightness Start Highest point End
(mag) Time Altitude Azimuth Time Altitude Azimuth Time Altitude Azimuth
Meteor 2-3 Rocket 3.8 21:06:20 10° S 21:12:00 70° E 21:17:39 10° NNE
Meteor 1-26 Rocket 4.4 21:08:02 10° NNW 21:13:43 84° W 21:19:28 10° S
Okean 1-7 3.7 21:09:59 10° N 21:14:07 38° ENE 21:18:13 10° SE
Cosmos 2346 Rocket 4.4 21:09:18 10° S 21:15:17 70° E 21:21:20 10° NNE
Cosmos 1825 3.6 21:12:36 10° SE 21:15:29 21° E 21:18:23 10° NE
CENTAUR R/B 2.9 21:12:25 10° S 21:17:55 39° ESE 21:24:05 10° NE
Cosmos 1782 3.6 21:16:14 10° N 21:19:54 34° ENE 21:23:32 10° SE
Shenzhou-11 Module 4.2 21:19:10 10° WSW 21:21:14 17° SSW 21:23:18 10° SSE
Cosmos 2344 4.3 21:15:23 10° SSE 21:21:49 30° ESE 21:28:40 10° NE
SPOT 5 4.4 21:18:25 10° ESE 21:22:45 26° ENE 21:27:02 10° N
Aureole 1 4.3 21:21:33 10° S 21:24:34 64° ESE 21:28:07 10° NNE
Envisat 3.4 21:19:54 10° S 21:24:57 66° WSW 21:30:01 10° NNW
Cosmos 1703 Rocket 3.6 21:26:45 10° N 21:31:11 85° E 21:35:33 10° S
DNEPR-1 R/B 4.1 21:29:06 10° S 21:34:05 44° ESE 21:38:23 10° NE
Cosmos 1943 Rocket 2.5 21:29:13 10° S 21:34:27 43° ESE 21:39:40 10° NE
Cosmos 1892 3.6 21:31:15 10° SSW 21:35:02 54° W 21:38:48 10° N
Cosmos 1269 Rocket 4.4 21:31:05 10° N 21:36:14 50° ENE 21:41:09 11° SE
Cosmos 1125 Rocket 3.6 21:35:21 10° S 21:40:26 53° ESE 21:45:31 10° NNE
Helios 1B rocket 2.4 21:37:53 10° NNE 21:42:02 82° ESE 21:46:08 10° SSW
Cosmos 1862 4.4 21:38:56 11° SE 21:42:06 25° E 21:45:24 10° NNE
Cosmos 1733 Rocket 4.4 21:40:35 12° SE 21:43:30 22° E 21:46:51 10° NE
Cosmos 2084 4.0 21:42:34 10° NW 21:46:14 44° WSW 21:50:01 10° SSE
Cosmos 1340 3.1 21:44:56 10° N 21:48:36 45° ENE 21:51:33 15° SSE
Cosmos 2263 4.2 21:44:18 10° SSW 21:50:02 73° ESE 21:55:45 10° NNE
NOAA 11 4.2 21:44:43 10° SSE 21:50:10 73° ENE 21:55:40 10° N
Lacrosse 4 Rocket 1.8 21:46:39 10° NNW 21:51:07 56° ENE 21:54:34 16° SE
Cosmos 1869 Rocket 3.6 21:46:55 10° S 21:51:15 86° W 21:55:39 10° N
SAR-Lupe-4 3.7 21:52:24 10° S 21:55:58 74° WSW 21:59:33 10° NNW
Cosmos 2369 Rocket 2.6 21:54:12 10° SSW 21:59:49 70° WNW 22:05:33 10° NNE
SL-08 RB Rocket 4.1 22:00:57 16° SE 22:04:25 51° ENE 22:08:57 10° N
YAOGAN 6 4.0 22:01:59 10° SSW 22:05:25 36° W 22:08:51 10° NNW
Cosmos 158 Rocket 3.9 22:01:14 10° NNW 22:06:09 81° WSW 22:10:13 15° SSE
Cosmos 1606 2.8 22:03:00 10° NNW 22:06:47 73° W 22:10:13 12° S
Cosmos 1867 4.4 22:02:10 10° NNW 22:07:21 41° NE 22:11:15 17° ESE
Cosmos 1833 4.3 22:01:35 10° NNW 22:07:25 72° ENE 22:11:43 18° SE
Cosmos 2221 Rocket 4.3 22:06:01 10° NNW 22:10:20 52° W 22:14:40 10° S
Meteor 1-29 4.1 22:09:41 10° N 22:13:04 47° WNW 22:16:25 10° SSW
H-2A R/B 2.4 22:11:04 18° SE 22:14:54 55° ENE 22:20:05 10° N
COSMOS 2455 3.8 22:09:45 10° SW 22:15:35 52° NW 22:21:29 10° NNE
Cosmos 2297 Rocket 4.4 22:14:16 10° NNE 22:16:53 13° NE 22:19:30 10° ENE
ATLAS 5 CENTAUR R/B 2.5 22:12:08 10° NW 22:18:07 77° SW 22:22:52 19° SSE
GPS 2-04 Rocket1 4.2 22:15:46 10° SW 22:18:15 17° SSW 22:18:45 17° S
Cosmos 1674 Rocket 4.0 22:14:57 10° N 22:19:05 43° ENE 22:21:11 25° SE
MetOp-B 4.2 22:14:45 13° S 22:19:31 78° WSW 22:24:55 10° NNW
Lacrosse 5 rocket 2.3 22:17:06 10° WSW 22:20:32 43° NW 22:24:05 10° NE
Aureole 3 4.5 22:19:53 10° SW 22:22:36 31° WNW 22:25:21 10° NNW
Landsat 7 4.4 22:21:54 23° SE 22:24:27 43° ENE 22:28:58 10° N
ERS-1 Rocket 3.7 22:23:37 10° S 22:28:26 51° W 22:33:21 10° NNW
BREEZE-M DEB (TANK) 3.3 22:27:01 10° WNW 22:30:18 87° NNE 22:40:24 15° ESE
Cosmos 1656 Rocket 3.7 22:25:41 10° S 22:30:58 55° ESE 22:36:22 10° NNE
ARGOS 3.3 22:28:52 17° S 22:33:07 72° WSW 22:38:30 10° NNW
Meteor 1-27 Rocket 3.8 22:27:23 10° NNW 22:33:10 80° W 22:37:24 18° S
Cosmos 1408 4.1 22:30:01 10° SW 22:33:30 37° WNW 22:37:01 10° N
Okean 3 4.2 22:30:20 10° N 22:34:15 37° ENE 22:35:35 29° ESE
H-2A R/B 3.5 22:33:43 19° E 22:35:01 22° ENE 22:38:15 10° NNE
Nadezhda 4 Rocket 3.9 22:30:14 14° S 22:35:39 74° E 22:41:49 10° NNE
Cosmos 1092 Rocket 4.2 22:31:56 21° SSE 22:35:51 52° E 22:41:47 10° NNE
ISS -2.0 22:33:51 10° W 22:36:51 33° NNW 22:39:51 10° NE
IGS 5A 4.3 22:36:31 28° ESE 22:37:54 36° ENE 22:41:43 10° N
Terra 2.4 22:37:35 27° ESE 22:39:37 43° ENE 22:44:07 10° N
USA 215 3.3 22:37:58 24° SE 22:42:09 70° SW 22:48:44 10° NW
Alouette 2 Rocket 4.4 22:35:01 10° S 22:42:46 81° E 22:47:41 10° NNE
YAOGAN 11 4.4 22:40:30 23° S 22:43:18 66° WSW 22:47:48 10° NNW
Cosmos 1825 4.3 22:47:43 10° SW 22:50:56 26° WNW 22:54:09 10° NNW
Cosmos 1437 2.5 22:52:39 10° N 22:55:52 83° ENE 22:56:09 71° SSE
Intercosmos 25 Rocket 4.4 22:49:27 10° N 22:56:51 74° W 22:59:26 28° S
Cosmos 1908 Rocket 3.6 22:55:35 40° SSE 22:56:57 59° E 23:01:20 10° NNE
SPOT 5 3.9 22:56:51 19° SSW 23:00:31 47° W 23:05:38 10° NNW
Milstar 3 4.0 22:56:24 10° SW 23:04:25 27° S 23:05:32 26° S
Cosmos 2251 Rocket 3.4 23:00:25 10° NNW 23:05:42 89° ENE 23:07:41 39° SSE
Cosmos 2227 Rocket 3.4 23:02:29 10° N 23:07:30 31° NE 23:10:00 22° E
DMSP B5D2-2 4.0 23:02:56 10° NNE 23:08:10 89° ESE 23:11:06 27° SSW
CENTAUR R/B 3.7 23:02:29 10° WSW 23:08:27 46° NW 23:15:14 10° NNE
Okean 2 Rocket 4.0 23:08:46 31° E 23:08:50 31° E 23:12:46 10° NNE
SPOT 1/Viking Rocket 4.3 23:10:32 24° SSW 23:13:23 47° W 23:18:24 10° NNW
Cosmos 2219 3.2 23:09:15 10° NNW 23:15:03 90° WSW 23:17:12 41° SSE
Spot 4 4.2 23:17:07 42° ESE 23:18:17 51° ENE 23:22:58 10° N
Cosmos 1943 Rocket 4.0 23:13:23 10° WSW 23:18:18 31° NW 23:23:13 10° N
deb Chang Zheng 4 3.9 23:15:22 10° NNE 23:19:39 46° E 23:19:47 46° ESE
CZ-4 R/B 4.0 23:15:36 10° NNE 23:20:06 48° E 23:20:28 46° ESE
Cosmos 1812 2.6 23:16:27 10° N 23:20:21 71° E 23:20:33 69° ESE
Meteor 1-14 Rocket 4.2 23:17:48 35° S 23:20:23 78° E 23:26:12 10° NNE
Cosmos 1782 Rocket 3.5 23:23:54 61° SE 23:24:26 68° E 23:28:48 10° NNE
Cosmos 2195 Rocket 4.4 23:21:49 33° S 23:24:57 86° E 23:31:19 10° N
Lacrosse 4 Rocket 3.7 23:26:31 10° WNW 23:29:22 17° WSW 23:30:55 14° SW
GEOS 3 Rocket 3.6 23:30:20 49° SSE 23:31:43 74° SW 23:36:59 10° NW
SL-19 R/B 4.4 23:28:54 10° NNE 23:34:59 83° ESE 23:37:41 37° S
Cosmos 2344 4.2 23:28:01 10° SW 23:35:34 59° NW 23:44:22 10° NE
Sich 1 Rocket 4.0 23:34:14 38° SW 23:35:40 58° W 23:40:02 10° N
Gbstr 26 Del rocket 3.2 23:34:35 10° NW 23:38:55 57° NNE 23:39:33 50° ENE
ATLAS CENTAUR R/B 1.4 23:39:00 54° WSW 23:39:43 69° NW 23:43:33 10° NNE
Cosmos 405 Rocket 2.7 23:38:28 10° NNW 23:41:56 70° WNW 23:41:56 70° WNW
Cosmos 1655 Rocket 3.9 23:42:10 44° S 23:44:18 82° E 23:50:34 10° N
Cosmos 1975 Rocket 3.1 23:40:24 10° NNW 23:44:53 74° W 23:45:23 66° SSW
CZ-4C R/B 3.5 23:46:58 66° ENE 23:47:01 66° ENE 23:51:07 10° N
Okean 1 3.3 23:46:38 10° N 23:50:24 77° NNE 23:50:24 77° NNE
Meteor 1-18 Rocket 4.4 23:46:10 10° NNW 23:51:53 70° W 23:53:32 47° SSW
ALOS 2 3.9 23:53:43 28° ENE 23:53:57 28° ENE 23:57:41 10° N
H-2A R/B 4.1 23:51:43 14° SW 23:54:37 21° W 23:58:36 10° NW
BREEZE M DEB (TANK) 3.9 23:49:06 10° W 23:55:25 46° NNW 23:57:09 21° NE
